Location: Bridalveil Moraine
(37.7171°N, 119.6568°W)
Time: 04:03:07
(UTC+00:00)

BlueWalker 3 - Pass Details

Date: 09 August 2024
Orbit: 476 x 487 km, 53.2° (Epoch: 09 September)

Event Time Altitude Azimuth Distance (km) Brightness Sun altitude
Exits shadow 10:20:15 28° 9° (N) 952 3.8 -27.8°
Drops below altitude 10° 10:22:29 10° 34° (NE) 1,689 5.6 -27.5°
Sets 10:24:46 0° 42° (NE) 2,575 6.8 -27.2°
